Year,Month,Day,Hour,Minute,Value (Times are PST for temperature in C)
2006,05,04,00,00,7.60
2006,05,04,00,01,7.50
2006,05,04,00,02,7.50
2006,05,04,00,03,7.50
2006,05,04,00,04,7.50
2006,05,04,00,05,7.40
2006,05,04,00,06,7.40
2006,05,04,00,07,7.40
2006,05,04,00,08,7.40
2006,05,04,00,09,7.40
2006,05,04,00,10,7.40
2006,05,04,00,11,7.40
2006,05,04,00,12,7.40
2006,05,04,00,13,7.40
2006,05,04,00,14,7.40
2006,05,04,00,15,7.30
2006,05,04,00,16,7.30
2006,05,04,00,17,7.30
2006,05,04,00,18,7.30
2006,05,04,00,19,7.30
2006,05,04,00,20,7.30
2006,05,04,00,21,7.30
2006,05,04,00,22,7.30
2006,05,04,00,23,7.30
2006,05,04,00,24,7.20
2006,05,04,00,25,7.20
2006,05,04,00,26,7.20
2006,05,04,00,27,7.20
2006,05,04,00,28,7.20
2006,05,04,00,29,7.20
2006,05,04,00,30,7.10
2006,05,04,00,31,7.10
2006,05,04,00,32,7.10
2006,05,04,00,33,7.10
2006,05,04,00,34,7.00
2006,05,04,00,35,7.00
2006,05,04,00,36,7.00
2006,05,04,00,37,7.00
2006,05,04,00,38,7.00
2006,05,04,00,39,6.90
2006,05,04,00,40,6.90
2006,05,04,00,41,6.90
2006,05,04,00,42,6.80
2006,05,04,00,43,6.80
2006,05,04,00,44,6.80
2006,05,04,00,45,6.80
2006,05,04,00,46,6.80
2006,05,04,00,47,6.80
2006,05,04,00,48,6.80
2006,05,04,00,49,6.80
2006,05,04,00,50,6.70
2006,05,04,00,51,6.70
2006,05,04,00,52,6.70
2006,05,04,00,53,6.70
2006,05,04,00,54,6.70
2006,05,04,00,55,6.70
2006,05,04,00,56,6.70
2006,05,04,00,57,6.60
2006,05,04,00,58,6.60
2006,05,04,00,59,6.60
2006,05,04,01,00,6.60
2006,05,04,01,01,6.60
2006,05,04,01,02,6.60
2006,05,04,01,03,6.60
2006,05,04,01,04,6.60
2006,05,04,01,05,6.50
2006,05,04,01,06,6.40
2006,05,04,01,07,6.40
2006,05,04,01,08,6.40
2006,05,04,01,09,6.40
2006,05,04,01,10,6.40
2006,05,04,01,11,6.40
2006,05,04,01,12,6.40
2006,05,04,01,13,6.40
2006,05,04,01,14,6.40
2006,05,04,01,15,6.40
2006,05,04,01,16,6.30
2006,05,04,01,17,6.30
2006,05,04,01,18,6.30
2006,05,04,01,19,6.30
2006,05,04,01,20,6.30
2006,05,04,01,21,6.30
2006,05,04,01,22,6.20
2006,05,04,01,23,6.20
2006,05,04,01,24,6.20
2006,05,04,01,25,6.20
2006,05,04,01,26,6.20
2006,05,04,01,27,6.20
2006,05,04,01,28,6.20
2006,05,04,01,29,6.20
2006,05,04,01,30,6.20
2006,05,04,01,31,6.20
2006,05,04,01,32,6.10
2006,05,04,01,33,6.10
2006,05,04,01,34,6.10
2006,05,04,01,35,6.10
2006,05,04,01,36,6.10
2006,05,04,01,37,6.10
2006,05,04,01,38,6.10
2006,05,04,01,39,6.00
2006,05,04,01,40,6.00
2006,05,04,01,41,6.00
2006,05,04,01,42,6.00
2006,05,04,01,43,6.00
2006,05,04,01,44,6.00
2006,05,04,01,45,6.00
2006,05,04,01,46,5.90
2006,05,04,01,47,5.90
2006,05,04,01,48,5.90
2006,05,04,01,49,5.90
2006,05,04,01,50,5.90
2006,05,04,01,51,5.90
2006,05,04,01,52,5.90
2006,05,04,01,53,5.90
2006,05,04,01,54,5.80
2006,05,04,01,55,5.80
2006,05,04,01,56,5.80
2006,05,04,01,57,5.80
2006,05,04,01,58,5.70
2006,05,04,01,59,5.70
2006,05,04,02,00,5.70
2006,05,04,02,01,5.70
2006,05,04,02,02,5.70
2006,05,04,02,03,5.70
2006,05,04,02,04,5.70
2006,05,04,02,05,5.70
2006,05,04,02,06,5.60
2006,05,04,02,07,5.60
2006,05,04,02,08,5.60
2006,05,04,02,09,5.60
2006,05,04,02,10,5.60
2006,05,04,02,11,5.50
2006,05,04,02,12,5.50
2006,05,04,02,13,5.50
2006,05,04,02,14,5.50
2006,05,04,02,15,5.50
2006,05,04,02,16,5.50
2006,05,04,02,17,5.50
2006,05,04,02,18,5.50
2006,05,04,02,19,5.50
2006,05,04,02,20,5.50
2006,05,04,02,21,5.50
2006,05,04,02,22,5.50
2006,05,04,02,23,5.50
2006,05,04,02,24,5.50
2006,05,04,02,25,5.50
2006,05,04,02,26,5.50
2006,05,04,02,27,5.50
2006,05,04,02,28,5.50
2006,05,04,02,29,5.50
2006,05,04,02,30,5.40
2006,05,04,02,31,5.40
2006,05,04,02,32,5.40
2006,05,04,02,33,5.40
2006,05,04,02,34,5.40
2006,05,04,02,35,5.40
2006,05,04,02,36,5.40
2006,05,04,02,37,5.40
2006,05,04,02,38,5.40
2006,05,04,02,39,5.40
2006,05,04,02,40,5.40
2006,05,04,02,41,5.40
2006,05,04,02,42,5.40
2006,05,04,02,43,5.40
2006,05,04,02,44,5.30
2006,05,04,02,45,5.30
2006,05,04,02,46,5.30
2006,05,04,02,47,5.30
2006,05,04,02,48,5.30
2006,05,04,02,49,5.30
2006,05,04,02,50,5.30
2006,05,04,02,51,5.30
2006,05,04,02,52,5.30
2006,05,04,02,53,5.30
2006,05,04,02,54,5.30
2006,05,04,02,55,5.30
2006,05,04,02,56,5.20
2006,05,04,02,57,5.20
2006,05,04,02,58,5.20
2006,05,04,02,59,5.20
2006,05,04,03,00,5.10
2006,05,04,03,01,5.10
2006,05,04,03,02,5.10
2006,05,04,03,03,5.10
2006,05,04,03,04,5.10
2006,05,04,03,05,5.10
2006,05,04,03,06,5.10
2006,05,04,03,07,5.10
2006,05,04,03,08,5.10
2006,05,04,03,09,5.00
2006,05,04,03,10,4.90
2006,05,04,03,11,4.90
2006,05,04,03,12,4.90
2006,05,04,03,13,4.90
2006,05,04,03,14,4.90
2006,05,04,03,15,4.90
2006,05,04,03,16,4.90
2006,05,04,03,17,4.90
2006,05,04,03,18,4.90
2006,05,04,03,19,4.90
2006,05,04,03,20,4.90
2006,05,04,03,21,4.90
2006,05,04,03,22,4.90
2006,05,04,03,23,4.90
2006,05,04,03,24,4.80
2006,05,04,03,25,4.80
2006,05,04,03,26,4.80
2006,05,04,03,27,4.80
2006,05,04,03,28,4.80
2006,05,04,03,29,4.70
2006,05,04,03,30,4.70
2006,05,04,03,31,4.70
2006,05,04,03,32,4.70
2006,05,04,03,33,4.70
2006,05,04,03,34,4.70
2006,05,04,03,35,4.70
2006,05,04,03,36,4.70
2006,05,04,03,37,4.70
2006,05,04,03,38,4.70
2006,05,04,03,39,4.70
2006,05,04,03,40,4.70
2006,05,04,03,41,4.70
2006,05,04,03,42,4.70
2006,05,04,03,43,4.70
2006,05,04,03,44,4.70
2006,05,04,03,45,4.70
2006,05,04,03,46,4.70
2006,05,04,03,47,4.70
2006,05,04,03,48,4.70
2006,05,04,03,49,4.70
2006,05,04,03,50,4.70
2006,05,04,03,51,4.70
2006,05,04,03,52,4.60
2006,05,04,03,53,4.60
2006,05,04,03,54,4.60
2006,05,04,03,55,4.60
2006,05,04,03,56,4.60
2006,05,04,03,57,4.60
2006,05,04,03,58,4.60
2006,05,04,03,59,4.60
2006,05,04,04,00,4.60
2006,05,04,04,01,4.60
2006,05,04,04,02,4.60
2006,05,04,04,03,4.60
2006,05,04,04,04,4.60
2006,05,04,04,05,4.60
2006,05,04,04,06,4.60
2006,05,04,04,07,4.60
2006,05,04,04,08,4.50
2006,05,04,04,09,4.50
2006,05,04,04,10,4.40
2006,05,04,04,11,4.40
2006,05,04,04,12,4.40
2006,05,04,04,13,4.40
2006,05,04,04,14,4.30
2006,05,04,04,15,4.30
2006,05,04,04,16,4.40
2006,05,04,04,17,4.40
2006,05,04,04,18,4.30
2006,05,04,04,19,4.30
2006,05,04,04,20,4.30
2006,05,04,04,21,4.30
2006,05,04,04,22,4.30
2006,05,04,04,23,4.30
2006,05,04,04,24,4.30
2006,05,04,04,25,4.30
2006,05,04,04,26,4.30
2006,05,04,04,27,4.30
2006,05,04,04,28,4.30
2006,05,04,04,29,4.20
2006,05,04,04,30,4.20
2006,05,04,04,31,4.20
2006,05,04,04,32,4.20
2006,05,04,04,33,4.20
2006,05,04,04,34,4.20
2006,05,04,04,35,4.20
2006,05,04,04,36,4.20
2006,05,04,04,37,4.20
2006,05,04,04,38,4.20
2006,05,04,04,39,4.20
2006,05,04,04,40,4.20
2006,05,04,04,41,4.20
2006,05,04,04,42,4.20
2006,05,04,04,43,4.20
2006,05,04,04,44,4.20
2006,05,04,04,45,4.20
2006,05,04,04,46,4.20
2006,05,04,04,47,4.20
2006,05,04,04,48,4.20
2006,05,04,04,49,4.20
2006,05,04,04,50,4.20
2006,05,04,04,51,4.20
2006,05,04,04,52,4.20
2006,05,04,04,53,4.20
2006,05,04,04,54,4.20
2006,05,04,04,55,4.20
2006,05,04,04,56,4.20
2006,05,04,04,57,4.20
2006,05,04,04,58,4.10
2006,05,04,04,59,4.10
2006,05,04,05,00,4.10
2006,05,04,05,01,4.10
2006,05,04,05,02,4.10
2006,05,04,05,03,4.10
2006,05,04,05,04,4.10
2006,05,04,05,05,4.10
2006,05,04,05,06,4.10
2006,05,04,05,07,4.10
2006,05,04,05,08,4.10
2006,05,04,05,09,4.10
2006,05,04,05,10,4.00
2006,05,04,05,11,4.00
2006,05,04,05,12,4.00
2006,05,04,05,13,4.00
2006,05,04,05,14,4.00
2006,05,04,05,15,4.00
2006,05,04,05,16,4.00
2006,05,04,05,17,4.00
2006,05,04,05,18,4.00
2006,05,04,05,19,4.00
2006,05,04,05,20,4.00
2006,05,04,05,21,3.90
2006,05,04,05,22,3.90
2006,05,04,05,23,3.90
2006,05,04,05,24,3.90
2006,05,04,05,25,3.90
2006,05,04,05,26,3.90
2006,05,04,05,27,3.90
2006,05,04,05,28,3.80
2006,05,04,05,29,3.80
2006,05,04,05,30,3.80
2006,05,04,05,31,3.80
2006,05,04,05,32,3.80
2006,05,04,05,33,3.80
2006,05,04,05,34,3.80
2006,05,04,05,35,3.70
2006,05,04,05,36,3.80
2006,05,04,05,37,3.80
2006,05,04,05,38,3.80
2006,05,04,05,39,3.80
2006,05,04,05,40,3.80
2006,05,04,05,41,3.80
2006,05,04,05,42,3.80
2006,05,04,05,43,3.80
2006,05,04,05,44,3.70
2006,05,04,05,45,3.70
2006,05,04,05,46,3.70
2006,05,04,05,47,3.70
2006,05,04,05,48,3.70
2006,05,04,05,49,3.70
2006,05,04,05,50,3.70
2006,05,04,05,51,3.70
2006,05,04,05,52,3.70
2006,05,04,05,53,3.70
2006,05,04,05,54,3.70
2006,05,04,05,55,3.70
2006,05,04,05,56,3.70
2006,05,04,05,57,3.70
2006,05,04,05,58,3.70
2006,05,04,05,59,3.80
2006,05,04,06,00,3.80
2006,05,04,06,01,3.80
2006,05,04,06,02,3.80
2006,05,04,06,03,3.80
2006,05,04,06,04,3.80
2006,05,04,06,05,3.80
2006,05,04,06,06,3.80
2006,05,04,06,07,3.90
2006,05,04,06,08,3.90
2006,05,04,06,09,4.00
2006,05,04,06,10,4.00
2006,05,04,06,11,3.90
2006,05,04,06,12,3.90
2006,05,04,06,13,3.90
2006,05,04,06,14,3.90
2006,05,04,06,15,3.90
2006,05,04,06,16,4.00
2006,05,04,06,17,4.00
2006,05,04,06,18,4.10
2006,05,04,06,19,4.10
2006,05,04,06,20,4.20
2006,05,04,06,21,4.20
2006,05,04,06,22,4.20
2006,05,04,06,23,4.20
2006,05,04,06,24,4.20
2006,05,04,06,25,4.30
2006,05,04,06,26,4.30
2006,05,04,06,27,4.30
2006,05,04,06,28,4.30
2006,05,04,06,29,4.30
2006,05,04,06,30,4.30
2006,05,04,06,31,4.40
2006,05,04,06,32,4.40
2006,05,04,06,33,4.40
2006,05,04,06,34,4.50
2006,05,04,06,35,4.60
2006,05,04,06,36,4.60
2006,05,04,06,37,4.70
2006,05,04,06,38,4.80
2006,05,04,06,39,4.90
2006,05,04,06,40,5.00
2006,05,04,06,41,5.10
2006,05,04,06,42,5.20
2006,05,04,06,43,5.30
2006,05,04,06,44,5.40
2006,05,04,06,45,5.50
2006,05,04,06,46,5.50
2006,05,04,06,47,5.60
2006,05,04,06,48,5.70
2006,05,04,06,49,5.80
2006,05,04,06,50,5.90
2006,05,04,06,51,6.00
2006,05,04,06,52,6.10
2006,05,04,06,53,6.20
2006,05,04,06,54,6.30
2006,05,04,06,55,6.40
2006,05,04,06,56,6.50
2006,05,04,06,57,6.60
2006,05,04,06,58,6.70
2006,05,04,06,59,6.80
2006,05,04,07,00,6.90
2006,05,04,07,01,7.00
2006,05,04,07,02,7.20
2006,05,04,07,03,7.30
2006,05,04,07,04,7.40
2006,05,04,07,05,7.50
2006,05,04,07,06,7.60
2006,05,04,07,07,7.70
2006,05,04,07,08,7.80
2006,05,04,07,09,7.90
2006,05,04,07,10,8.10
2006,05,04,07,11,8.20
2006,05,04,07,12,8.40
2006,05,04,07,13,8.60
2006,05,04,07,14,8.80
2006,05,04,07,15,8.90
2006,05,04,07,16,9.10
2006,05,04,07,17,9.20
2006,05,04,07,18,9.30
2006,05,04,07,19,9.30
2006,05,04,07,20,9.40
2006,05,04,07,21,9.50
2006,05,04,07,22,9.60
2006,05,04,07,23,9.70
2006,05,04,07,24,9.80
2006,05,04,07,25,9.90
2006,05,04,07,26,9.90
2006,05,04,07,27,10.00
2006,05,04,07,28,10.10
2006,05,04,07,29,10.10
2006,05,04,07,30,10.20
2006,05,04,07,31,10.30
2006,05,04,07,32,10.40
2006,05,04,07,33,10.60
2006,05,04,07,34,10.70
2006,05,04,07,35,10.80
2006,05,04,07,36,10.80
2006,05,04,07,37,10.90
2006,05,04,07,38,10.90
2006,05,04,07,39,11.10
2006,05,04,07,40,11.10
2006,05,04,07,41,11.20
2006,05,04,07,42,11.20
2006,05,04,07,43,11.30
2006,05,04,07,44,11.40
2006,05,04,07,45,11.40
2006,05,04,07,46,11.60
2006,05,04,07,47,11.60
2006,05,04,07,48,11.70
2006,05,04,07,49,11.80
2006,05,04,07,50,11.90
2006,05,04,07,51,12.00
2006,05,04,07,52,12.00
2006,05,04,07,53,12.10
2006,05,04,07,54,12.10
2006,05,04,07,55,12.10
2006,05,04,07,56,12.10
2006,05,04,07,57,12.20
2006,05,04,07,58,12.20
2006,05,04,07,59,12.20
2006,05,04,08,00,12.30
2006,05,04,08,01,12.30
2006,05,04,08,02,12.40
2006,05,04,08,03,12.40
2006,05,04,08,04,12.50
2006,05,04,08,05,12.50
2006,05,04,08,06,12.60
2006,05,04,08,07,12.70
2006,05,04,08,08,12.80
2006,05,04,08,09,12.80
2006,05,04,08,10,12.80
2006,05,04,08,11,12.80
2006,05,04,08,12,12.90
2006,05,04,08,13,12.90
2006,05,04,08,14,12.90
2006,05,04,08,15,12.90
2006,05,04,08,16,12.90
2006,05,04,08,17,13.00
2006,05,04,08,18,13.00
2006,05,04,08,19,12.90
2006,05,04,08,20,12.90
2006,05,04,08,21,12.90
2006,05,04,08,22,13.00
2006,05,04,08,23,13.00
2006,05,04,08,24,13.00
2006,05,04,08,25,13.10
2006,05,04,08,26,13.10
2006,05,04,08,27,13.10
2006,05,04,08,28,13.10
2006,05,04,08,29,13.10
2006,05,04,08,30,13.10
2006,05,04,08,31,13.10
2006,05,04,08,32,13.20
2006,05,04,08,33,13.20
2006,05,04,08,34,13.20
2006,05,04,08,35,13.20
2006,05,04,08,36,13.10
2006,05,04,08,37,13.10
2006,05,04,08,38,13.20
2006,05,04,08,39,13.20
2006,05,04,08,40,13.30
2006,05,04,08,41,13.30
2006,05,04,08,42,13.30
2006,05,04,08,43,13.30
2006,05,04,08,44,13.30
2006,05,04,08,45,13.40
2006,05,04,08,46,13.50
2006,05,04,08,47,13.50
2006,05,04,08,48,13.50
2006,05,04,08,49,13.50
2006,05,04,08,50,13.60
2006,05,04,08,51,13.60
2006,05,04,08,52,13.60
2006,05,04,08,53,13.70
2006,05,04,08,54,13.80
2006,05,04,08,55,13.90
2006,05,04,08,56,14.00
2006,05,04,08,57,14.10
2006,05,04,08,58,14.10
2006,05,04,08,59,14.20
2006,05,04,09,00,14.20
2006,05,04,09,01,14.20
2006,05,04,09,02,14.20
2006,05,04,09,03,14.20
2006,05,04,09,04,14.20
2006,05,04,09,05,14.20
2006,05,04,09,06,14.20
2006,05,04,09,07,14.20
2006,05,04,09,08,14.30
2006,05,04,09,09,14.30
2006,05,04,09,10,14.40
2006,05,04,09,11,14.50
2006,05,04,09,12,14.50
2006,05,04,09,13,14.60
2006,05,04,09,14,14.70
2006,05,04,09,15,14.70
2006,05,04,09,16,14.80
2006,05,04,09,17,14.80
2006,05,04,09,18,14.70
2006,05,04,09,19,14.60
2006,05,04,09,20,14.50
2006,05,04,09,21,14.60
2006,05,04,09,22,14.70
2006,05,04,09,23,14.60
2006,05,04,09,24,14.60
2006,05,04,09,25,14.60
2006,05,04,09,26,14.60
2006,05,04,09,27,14.50
2006,05,04,09,28,14.60
2006,05,04,09,29,14.60
2006,05,04,09,30,14.70
2006,05,04,09,31,14.80
2006,05,04,09,32,14.80
2006,05,04,09,33,14.70
2006,05,04,09,34,14.60
2006,05,04,09,35,14.50
2006,05,04,09,36,14.50
2006,05,04,09,37,14.40
2006,05,04,09,38,14.40
2006,05,04,09,39,14.30
2006,05,04,09,40,14.30
2006,05,04,09,41,14.30
2006,05,04,09,42,14.40
2006,05,04,09,43,14.50
2006,05,04,09,44,14.60
2006,05,04,09,45,14.60
2006,05,04,09,46,14.70
2006,05,04,09,47,14.80
2006,05,04,09,48,14.80
2006,05,04,09,49,14.70
2006,05,04,09,50,14.70
2006,05,04,09,51,14.70
2006,05,04,09,52,14.80
2006,05,04,09,53,14.80
2006,05,04,09,54,14.80
2006,05,04,09,55,14.80
2006,05,04,09,56,14.80
2006,05,04,09,57,14.80
2006,05,04,09,58,14.80
2006,05,04,09,59,14.70
2006,05,04,10,00,14.60
2006,05,04,10,01,14.60
2006,05,04,10,02,14.60
2006,05,04,10,03,14.60
2006,05,04,10,04,14.60
2006,05,04,10,05,14.60
2006,05,04,10,06,14.60
2006,05,04,10,07,14.70
2006,05,04,10,08,14.70
2006,05,04,10,09,14.90
2006,05,04,10,10,15.10
2006,05,04,10,11,15.30
2006,05,04,10,12,15.40
2006,05,04,10,13,15.50
2006,05,04,10,14,15.60
2006,05,04,10,15,15.70
2006,05,04,10,16,15.70
2006,05,04,10,17,15.80
2006,05,04,10,18,15.90
2006,05,04,10,19,15.80
2006,05,04,10,20,15.90
2006,05,04,10,21,16.00
2006,05,04,10,22,16.10
2006,05,04,10,23,16.00
2006,05,04,10,24,16.00
2006,05,04,10,25,16.00
2006,05,04,10,26,15.90
2006,05,04,10,27,15.90
2006,05,04,10,28,15.90
2006,05,04,10,29,16.00
2006,05,04,10,30,16.10
2006,05,04,10,31,16.10
2006,05,04,10,32,16.10
2006,05,04,10,33,16.10
2006,05,04,10,34,16.20
2006,05,04,10,35,16.30
2006,05,04,10,36,16.40
2006,05,04,10,37,16.40
2006,05,04,10,38,16.40
2006,05,04,10,39,16.30
2006,05,04,10,40,16.30
2006,05,04,10,41,16.40
2006,05,04,10,42,16.40
2006,05,04,10,43,16.40
2006,05,04,10,44,16.40
2006,05,04,10,45,16.30
2006,05,04,10,46,16.40
2006,05,04,10,47,16.40
2006,05,04,10,48,16.40
2006,05,04,10,49,16.40
2006,05,04,10,50,16.40
2006,05,04,10,51,16.40
2006,05,04,10,52,16.40
2006,05,04,10,53,16.50
2006,05,04,10,54,16.50
2006,05,04,10,55,16.50
2006,05,04,10,56,16.50
2006,05,04,10,57,16.50
2006,05,04,10,58,16.60
2006,05,04,10,59,16.50
2006,05,04,11,00,16.40
2006,05,04,11,01,16.40
2006,05,04,11,02,16.40
2006,05,04,11,03,16.40
2006,05,04,11,04,16.30
2006,05,04,11,05,16.30
2006,05,04,11,06,16.20
2006,05,04,11,07,16.20
2006,05,04,11,08,16.30
2006,05,04,11,09,16.30
2006,05,04,11,10,16.30
2006,05,04,11,11,16.40
2006,05,04,11,12,16.40
2006,05,04,11,13,16.40
2006,05,04,11,14,16.40
2006,05,04,11,15,16.60
2006,05,04,11,16,16.60
2006,05,04,11,17,16.70
2006,05,04,11,18,16.70
2006,05,04,11,19,16.70
2006,05,04,11,20,16.80
2006,05,04,11,21,16.90
2006,05,04,11,22,17.00
2006,05,04,11,23,17.00
2006,05,04,11,24,17.10
2006,05,04,11,25,17.10
2006,05,04,11,26,17.10
2006,05,04,11,27,17.10
2006,05,04,11,28,17.10
2006,05,04,11,29,17.00
2006,05,04,11,30,17.10
2006,05,04,11,31,17.10
2006,05,04,11,32,17.20
2006,05,04,11,33,17.10
2006,05,04,11,34,17.00
2006,05,04,11,35,17.10
2006,05,04,11,36,17.20
2006,05,04,11,37,17.10
2006,05,04,11,38,17.10
2006,05,04,11,39,17.00
2006,05,04,11,40,17.00
2006,05,04,11,41,17.00
2006,05,04,11,42,17.00
2006,05,04,11,43,17.00
2006,05,04,11,44,17.10
2006,05,04,11,45,17.10
2006,05,04,11,46,17.10
2006,05,04,11,47,17.10
2006,05,04,11,48,17.10
2006,05,04,11,49,17.10
2006,05,04,11,50,17.10
2006,05,04,11,51,17.10
2006,05,04,11,52,17.20
2006,05,04,11,53,17.10
2006,05,04,11,54,17.00
2006,05,04,11,55,17.00
2006,05,04,11,56,17.00
2006,05,04,11,57,17.00
2006,05,04,11,58,17.20
2006,05,04,11,59,17.30
2006,05,04,12,00,17.30
2006,05,04,12,01,17.30
2006,05,04,12,02,17.30
2006,05,04,12,03,17.40
2006,05,04,12,04,17.40
2006,05,04,12,05,17.40
2006,05,04,12,06,17.40
2006,05,04,12,07,17.40
2006,05,04,12,08,17.50
2006,05,04,12,09,17.50
2006,05,04,12,10,17.50
2006,05,04,12,11,17.50
2006,05,04,12,12,17.50
2006,05,04,12,13,17.50
2006,05,04,12,14,17.60
2006,05,04,12,15,17.70
2006,05,04,12,16,17.80
2006,05,04,12,17,17.80
2006,05,04,12,18,17.90
2006,05,04,12,19,17.90
2006,05,04,12,20,18.10
2006,05,04,12,21,17.90
2006,05,04,12,22,18.00
2006,05,04,12,23,18.10
2006,05,04,12,24,18.20
2006,05,04,12,25,18.30
2006,05,04,12,26,18.30
2006,05,04,12,27,18.40
2006,05,04,12,28,18.50
2006,05,04,12,29,18.50
2006,05,04,12,30,18.60
2006,05,04,12,31,18.60
2006,05,04,12,32,18.60
2006,05,04,12,33,18.60
2006,05,04,12,34,18.60
2006,05,04,12,35,18.60
2006,05,04,12,36,18.50
2006,05,04,12,37,18.50
2006,05,04,12,38,18.50
2006,05,04,12,39,18.50
2006,05,04,12,40,18.60
2006,05,04,12,41,18.70
2006,05,04,12,42,18.70
2006,05,04,12,43,18.70
2006,05,04,12,44,18.80
2006,05,04,12,45,18.80
2006,05,04,12,46,18.70
2006,05,04,12,47,18.70
2006,05,04,12,48,18.70
2006,05,04,12,49,18.80
2006,05,04,12,50,18.80
2006,05,04,12,51,18.70
2006,05,04,12,52,18.70
2006,05,04,12,53,18.70
2006,05,04,12,54,18.70
2006,05,04,12,55,18.70
2006,05,04,12,56,18.70
2006,05,04,12,57,18.80
2006,05,04,12,58,18.80
2006,05,04,12,59,18.90
2006,05,04,13,00,18.90
2006,05,04,13,01,18.90
2006,05,04,13,02,18.90
2006,05,04,13,03,18.80
2006,05,04,13,04,18.80
2006,05,04,13,05,18.80
2006,05,04,13,06,18.80
2006,05,04,13,07,18.80
2006,05,04,13,08,18.90
2006,05,04,13,09,18.90
2006,05,04,13,10,18.90
2006,05,04,13,11,18.90
2006,05,04,13,12,18.80
2006,05,04,13,13,18.70
2006,05,04,13,14,18.60
2006,05,04,13,15,18.60
2006,05,04,13,16,18.70
2006,05,04,13,17,18.80
2006,05,04,13,18,18.80
2006,05,04,13,19,18.80
2006,05,04,13,20,18.80
2006,05,04,13,21,18.80
2006,05,04,13,22,18.80
2006,05,04,13,23,18.80
2006,05,04,13,24,18.70
2006,05,04,13,25,18.60
2006,05,04,13,26,18.50
2006,05,04,13,27,18.30
2006,05,04,13,28,18.20
2006,05,04,13,29,18.10
2006,05,04,13,30,18.10
2006,05,04,13,31,18.10
2006,05,04,13,32,18.00
2006,05,04,13,33,17.90
2006,05,04,13,34,17.90
2006,05,04,13,35,18.00
2006,05,04,13,36,18.10
2006,05,04,13,37,18.10
2006,05,04,13,38,18.10
2006,05,04,13,39,18.00
2006,05,04,13,40,17.90
2006,05,04,13,41,17.80
2006,05,04,13,42,17.80
2006,05,04,13,43,17.80
2006,05,04,13,44,17.80
2006,05,04,13,45,17.90
2006,05,04,13,46,17.90
2006,05,04,13,47,17.80
2006,05,04,13,48,17.80
2006,05,04,13,49,17.80
2006,05,04,13,50,17.70
2006,05,04,13,51,17.80
2006,05,04,13,52,17.80
2006,05,04,13,53,17.80
2006,05,04,13,54,17.80
2006,05,04,13,55,17.80
2006,05,04,13,56,17.80
2006,05,04,13,57,17.80
2006,05,04,13,58,17.90
2006,05,04,13,59,18.00
2006,05,04,14,00,18.20
2006,05,04,14,01,18.30
2006,05,04,14,02,18.30
2006,05,04,14,03,18.30
2006,05,04,14,04,18.30
2006,05,04,14,05,18.30
2006,05,04,14,06,18.20
2006,05,04,14,07,18.30
2006,05,04,14,08,18.30
2006,05,04,14,09,18.30
2006,05,04,14,10,18.30
2006,05,04,14,11,18.30
2006,05,04,14,12,18.30
2006,05,04,14,13,18.30
2006,05,04,14,14,18.30
2006,05,04,14,15,18.30
2006,05,04,14,16,18.40
2006,05,04,14,17,18.40
2006,05,04,14,18,18.40
2006,05,04,14,19,18.40
2006,05,04,14,20,18.30
2006,05,04,14,21,18.30
2006,05,04,14,22,18.40
2006,05,04,14,23,18.50
2006,05,04,14,24,18.60
2006,05,04,14,25,18.70
2006,05,04,14,26,18.70
2006,05,04,14,27,18.70
2006,05,04,14,28,18.60
2006,05,04,14,29,18.50
2006,05,04,14,30,18.50
2006,05,04,14,31,18.60
2006,05,04,14,32,18.60
2006,05,04,14,33,18.60
2006,05,04,14,34,18.60
2006,05,04,14,35,18.60
2006,05,04,14,36,18.60
2006,05,04,14,37,18.60
2006,05,04,14,38,18.50
2006,05,04,14,39,18.60
2006,05,04,14,40,18.60
2006,05,04,14,41,18.60
2006,05,04,14,42,18.60
2006,05,04,14,43,18.60
2006,05,04,14,44,18.50
2006,05,04,14,45,18.50
2006,05,04,14,46,18.60
2006,05,04,14,47,18.60
2006,05,04,14,48,18.50
2006,05,04,14,49,18.50
2006,05,04,14,50,18.50
2006,05,04,14,51,18.50
2006,05,04,14,52,18.50
2006,05,04,14,53,18.50
2006,05,04,14,54,18.50
2006,05,04,14,55,18.60
2006,05,04,14,56,18.60
2006,05,04,14,57,18.60
2006,05,04,14,58,18.70
2006,05,04,14,59,18.70
2006,05,04,15,00,18.80
2006,05,04,15,01,18.90
2006,05,04,15,02,18.90
2006,05,04,15,03,18.90
2006,05,04,15,04,18.90
2006,05,04,15,05,18.90
2006,05,04,15,06,18.90
2006,05,04,15,07,18.80
2006,05,04,15,08,18.80
2006,05,04,15,09,18.80
2006,05,04,15,10,18.80
2006,05,04,15,11,18.90
2006,05,04,15,12,18.90
2006,05,04,15,13,18.90
2006,05,04,15,14,18.90
2006,05,04,15,15,18.90
2006,05,04,15,16,18.90
2006,05,04,15,17,19.10
2006,05,04,15,18,19.20
2006,05,04,15,19,19.40
2006,05,04,15,20,19.40
2006,05,04,15,21,19.40
2006,05,04,15,22,19.40
2006,05,04,15,23,19.40
2006,05,04,15,24,19.40
2006,05,04,15,25,19.50
2006,05,04,15,26,19.50
2006,05,04,15,27,19.60
2006,05,04,15,28,19.60
2006,05,04,15,29,19.60
2006,05,04,15,30,19.50
2006,05,04,15,31,19.40
2006,05,04,15,32,19.40
2006,05,04,15,33,19.40
2006,05,04,15,34,19.50
2006,05,04,15,35,19.60
2006,05,04,15,36,19.70
2006,05,04,15,37,19.80
2006,05,04,15,38,19.80
2006,05,04,15,39,19.90
2006,05,04,15,40,20.00
2006,05,04,15,41,20.00
2006,05,04,15,42,19.90
2006,05,04,15,43,19.90
2006,05,04,15,44,19.80
2006,05,04,15,45,19.80
2006,05,04,15,46,19.80
2006,05,04,15,47,19.80
2006,05,04,15,48,19.80
2006,05,04,15,49,19.80
2006,05,04,15,50,19.80
2006,05,04,15,51,19.90
2006,05,04,15,52,19.90
2006,05,04,15,53,19.90
2006,05,04,15,54,19.80
2006,05,04,15,55,19.80
2006,05,04,15,56,19.70
2006,05,04,15,57,19.70
2006,05,04,15,58,19.60
2006,05,04,15,59,19.60
2006,05,04,16,00,19.50
2006,05,04,16,01,19.50
2006,05,04,16,02,19.40
2006,05,04,16,03,19.40
2006,05,04,16,04,19.30
2006,05,04,16,05,19.20
2006,05,04,16,06,19.20
2006,05,04,16,07,19.10
2006,05,04,16,08,19.10
2006,05,04,16,09,19.10
2006,05,04,16,10,19.10
2006,05,04,16,11,19.00
2006,05,04,16,12,18.90
2006,05,04,16,13,18.90
2006,05,04,16,14,18.90
2006,05,04,16,15,18.90
2006,05,04,16,16,19.00
2006,05,04,16,17,19.10
2006,05,04,16,18,19.10
2006,05,04,16,19,19.10
2006,05,04,16,20,19.20
2006,05,04,16,21,19.20
2006,05,04,16,22,19.30
2006,05,04,16,23,19.30
2006,05,04,16,24,19.40
2006,05,04,16,25,19.50
2006,05,04,16,26,19.60
2006,05,04,16,27,19.70
2006,05,04,16,28,19.70
2006,05,04,16,29,19.70
2006,05,04,16,30,19.70
2006,05,04,16,31,19.70
2006,05,04,16,32,19.60
2006,05,04,16,33,19.60
2006,05,04,16,34,19.70
2006,05,04,16,35,19.70
2006,05,04,16,36,19.80
2006,05,04,16,37,19.80
2006,05,04,16,38,19.80
2006,05,04,16,39,19.90
2006,05,04,16,40,19.90
2006,05,04,16,41,20.00
2006,05,04,16,42,20.10
2006,05,04,16,43,20.20
2006,05,04,16,44,20.30
2006,05,04,16,45,20.40
2006,05,04,16,46,20.50
2006,05,04,16,47,20.50
2006,05,04,16,48,20.60
2006,05,04,16,49,20.60
2006,05,04,16,50,20.60
2006,05,04,16,51,20.60
2006,05,04,16,52,20.60
2006,05,04,16,53,20.60
2006,05,04,16,54,20.60
2006,05,04,16,55,20.70
2006,05,04,16,56,20.60
2006,05,04,16,57,20.60
2006,05,04,16,58,20.60
2006,05,04,16,59,20.50
2006,05,04,17,00,20.50
2006,05,04,17,01,20.60
2006,05,04,17,02,20.60
2006,05,04,17,03,20.60
2006,05,04,17,04,20.60
2006,05,04,17,05,20.60
2006,05,04,17,06,20.50
2006,05,04,17,07,20.40
2006,05,04,17,08,20.40
2006,05,04,17,09,20.40
2006,05,04,17,10,20.40
2006,05,04,17,11,20.40
2006,05,04,17,12,20.40
2006,05,04,17,13,20.40
2006,05,04,17,14,20.40
2006,05,04,17,15,20.50
2006,05,04,17,16,20.50
2006,05,04,17,17,20.50
2006,05,04,17,18,20.40
2006,05,04,17,19,20.40
2006,05,04,17,20,20.40
2006,05,04,17,21,20.40
2006,05,04,17,22,20.50
2006,05,04,17,23,20.40
2006,05,04,17,24,20.40
2006,05,04,17,25,20.30
2006,05,04,17,26,20.30
2006,05,04,17,27,20.20
2006,05,04,17,28,20.20
2006,05,04,17,29,20.10
2006,05,04,17,30,20.10
2006,05,04,17,31,20.10
2006,05,04,17,32,20.10
2006,05,04,17,33,20.10
2006,05,04,17,34,19.90
2006,05,04,17,35,19.90
2006,05,04,17,36,19.90
2006,05,04,17,37,19.80
2006,05,04,17,38,19.80